Simultaneous Nadir Overpasses (SNOs) Predictions

Prediction of SNOs between GOES-17 and NOAA-20 Satellite Orbit:

Table of predicted SNOs for the next 14.0 days since TLE Epoch: 9/28/2024
Index Date Time (GOES-17) GOES-17 Lat,Lon NOAA-20 Lat,Lon Distance(km) Time Diff (sec)
1 09/28/2024 08:31:13 -0.02,-104.69 0.36,-106.46 201.27 80
2 09/29/2024 08:09:49 -0.01,-104.69 -0.61,-101.93 314.27 80
3 09/30/2024 20:31:47 0.01,-104.71 -0.59,-107.25 289.60 80
4 10/01/2024 20:15:45 0.00,-104.72 0.46,-102.73 226.55 80
5 10/03/2024 08:37:35 -0.00,-104.71 0.74,-108.01 375.95 80
6 10/04/2024 08:16:12 0.00,-104.71 -0.25,-103.48 139.85 80
7 10/05/2024 20:38:10 -0.01,-104.72 -0.93,-108.80 464.51 80
8 10/06/2024 20:22:07 -0.02,-104.73 0.07,-104.27 51.61 80
9 10/09/2024 08:25:13 0.03,-104.72 0.10,-105.03 35.19 80
10 10/10/2024 08:03:50 0.02,-104.72 -0.91,-100.50 480.05 80
11 10/11/2024 20:25:47 -0.03,-104.72 -0.30,-105.81 125.29 80
